This is the latest recevied weather packets stored in our database for station/object SP3ZBZ-13. If no packets are shown the sender has not sent any weather packets the latest 10 day(s).
| Time | Temp. | Humidity | Pressure | Rain* | Wind** | Luminosity | Snow |
|---|---|---|---|---|---|---|---|
| 1777824061 | 28.33° C | 21% | 1006.2 hPa | - | - | 157 W/m² | - |
| 1777823160 | 28.33° C | 21% | 1006.2 hPa | - | - | 231 W/m² | - |
| 1777822259 | 28.33° C | 21% | 1006.3 hPa | - | - | 275 W/m² | - |
| 1777821358 | 28.33° C | 22% | 1006.3 hPa | - | - | 307 W/m² | - |
| 1777820458 | 28.33° C | 19% | 1006.5 hPa | - | - | 336 W/m² | - |
| 1777819556 | 28.33° C | 21% | 1006.7 hPa | - | - | 372 W/m² | - |
| 1777818656 | 28.33° C | 22% | 1006.9 hPa | - | - | 406 W/m² | - |
| 1777817755 | 27.78° C | 21% | 1007 hPa | - | - | 442 W/m² | - |
| 1777816854 | 28.33° C | 22% | 1007.2 hPa | - | - | 470 W/m² | - |
| 1777815953 | 27.78° C | 23% | 1007.3 hPa | - | - | 511 W/m² | - |
| 1777815052 | 27.22° C | 24% | 1007.5 hPa | - | - | 537 W/m² | - |
| 1777814151 | 27.78° C | 26% | 1007.7 hPa | - | - | 555 W/m² | - |
| 1777813250 | 27.22° C | 23% | 1007.9 hPa | - | - | 597 W/m² | - |
| 1777812350 | 27.22° C | 22% | 1008 hPa | - | - | 608 W/m² | - |
| 1777811449 | 27.22° C | 21% | 1008.2 hPa | - | - | 621 W/m² | - |
| 1777810548 | 27.22° C | 22% | 1008.3 hPa | - | - | 632 W/m² | - |
| 1777809647 | 27.22° C | 23% | 1008.3 hPa | - | - | 646 W/m² | - |
| 1777808746 | 26.67° C | 22% | 1008.6 hPa | - | - | 661 W/m² | - |
| 1777807845 | 26.67° C | 23% | 1008.5 hPa | - | - | 666 W/m² | - |
| 1777806948 | 26.67° C | 26% | 1008.9 hPa | - | - | 674 W/m² | - |
| 1777806043 | 26.67° C | 25% | 1008.9 hPa | - | - | 681 W/m² | - |
| 1777805142 | 26.11° C | 25% | 1009.1 hPa | - | - | 682 W/m² | - |
| 1777804241 | 25.56° C | 26% | 1009.2 hPa | - | - | 679 W/m² | - |
| 1777803340 | 25.56° C | 28% | 1009.3 hPa | - | - | 673 W/m² | - |
| 1777802440 | 25° C | 26% | 1009.6 hPa | - | - | 655 W/m² | - |
* Rain since midnight (hover to see other rain measurements)
** Current wind speed in m/s (hover to see current wind gust speed)